sat.trackr.live / text

‹ back to catalog

STARLINK-6378

NORAD 57347 · 2023-099V

PAYLOAD ACTIVE UNKNOWN

§ Identity

Operator
Country
US
Launch date
2023-07-16
Launch site
AFETR
Launch vehicle
Mass (kg)
RCS (m²)

Purposes: comms

External: N2YO · Heavens-Above · Gunter

§ Orbital elements

Epoch: 2026-09-19T09:52:09.179904Z

Period
94.27 min
Inclination
43.0035°
Eccentricity
0.0001760
Mean motion
15.27576588 rev/d
Perigee alt
481.9 km
Apogee alt
484.3 km
Semi-major
6,861.2 km
B*
4.1682e-5
RAAN
241.7740°
Arg perigee
282.2486°
Mean anomaly
77.8169°
Rev number
17,566

§ Raw data

STARLINK-63781 57347U 23099V   26262.41121736  .00000885  00000+0  41682-4 0  99972 57347  43.0035 241.7740 0001760 282.2486  77.8169 15.27576588175661

JSON: /api/v1/satellites/57347 · /tle

For live sub-satellite position, see the globe view (requires WebGL).

§ Visibility from observer

Set your observer location to see the next 7 days of passes ≥ 10°. The values pass through the URL so the page stays shareable.

No JS? Fill the form by hand. The geolocation button needs JavaScript.